FW9291 Weather Reports


Display with metric or nautical units.
time (UTC)temp
F
wind
direction
speed
MPH
gust
MPH
rain 1hr
in
rain 24hr
in
rain mn
in
humidity
%
barometer
mb
20260509222619 66 294 8.0 16.0 0.00 0.00 0.00 53 998.2
20260509222119 66 271 5.0 11.0 0.00 0.00 0.00 53 998.2
20260509221619 65 256 5.0 13.0 0.00 0.00 0.00 55 998.2
20260509221121 65 226 7.0 17.0 0.00 0.00 0.00 55 998.2
20260509220621 65 292 7.0 17.0 0.00 0.00 0.00 54 998.3
20260509220120 65 282 7.0 15.0 0.00 0.00 0.00 56 998.3
20260509215619 65 243 7.0 16.0 0.00 0.00 0.00 56 998.3
20260509215119 64 293 8.0 16.0 0.00 0.00 0.00 56 998.3
20260509214619 64 262 8.0 15.0 0.00 0.00 0.00 56 998.2
20260509213618 64 271 7.0 14.0 0.00 0.00 0.00 57 998.3
20260509213119 64 230 7.0 15.0 0.00 0.00 0.00 57 998.4
20260509212621 63 249 7.0 15.0 0.00 0.00 0.00 57 998.3
20260509212114 63 297 8.0 15.0 0.00 0.00 0.00 58 998.3
20260509211613 63 271 8.0 17.0 0.00 0.00 0.00 59 998.3
20260509211112 62 302 9.0 18.0 0.00 0.00 0.00 59 998.1
20260509210111 62 313 8.0 14.0 0.00 0.00 0.00 59 998.4
20260509205109 62 276 6.0 12.0 0.00 0.00 0.00 60 998.1
20260509204108 61 289 6.0 13.0 0.00 0.00 0.00 60 998.1
20260509203610 61 261 7.0 13.0 0.00 0.00 0.00 61 998.1
20260509203108 60 284 8.0 13.0 0.00 0.00 0.00 61 998.0
20260509202609 60 271 8.0 14.0 0.00 0.00 0.00 61 998.0
20260509202106 60 305 7.0 14.0 0.00 0.00 0.00 62 998.0
20260509201604 60 263 6.0 10.0 0.00 0.00 0.00 63 998.0
20260509201105 59 279 6.0 14.0 0.00 0.00 0.00 63 997.9
20260509200104 59 279 7.0 15.0 0.00 0.00 0.00 64 997.8
20260509195606 59 279 7.0 12.0 0.00 0.00 0.00 64 997.9
20260509195104 58 303 6.0 11.0 0.00 0.00 0.00 64 997.8
20260509194605 58 279 5.0 11.0 0.00 0.00 0.00 65 997.9
20260509193606 58 286 6.0 11.0 0.00 0.00 0.00 65 997.7
20260509193106 57 281 5.0 11.0 0.00 0.00 0.00 65 997.8
20260509192607 57 282 5.0 11.0 0.00 0.00 0.00 66 997.7
20260509192107 57 286 5.0 11.0 0.00 0.00 0.00 66 997.6
20260509191106 57 273 4.0 9.0 0.00 0.00 0.00 66 997.7
20260509190606 56 292 4.0 9.0 0.00 0.00 0.00 66 997.7
20260509190107 57 282 4.0 9.0 0.00 0.00 0.00 66 997.8
20260509185609 56 298 4.0 7.0 0.00 0.00 0.00 66 997.8
20260509185102 56 289 4.0 8.0 0.00 0.00 0.00 66 997.7
20260509184602 56 292 4.0 8.0 0.00 0.00 0.00 66 997.7
20260509183603 57 281 4.0 8.0 0.00 0.00 0.00 66 997.7
20260509183100 57 295 4.0 9.0 0.00 0.00 0.00 66 997.8
20260509182600 57 304 4.0 10.0 0.00 0.00 0.00 65 997.6
20260509182102 57 292 4.0 10.0 0.00 0.00 0.00 66 997.7
20260509181051 57 304 5.0 10.0 0.00 0.00 0.00 65 997.7
20260509180552 57 319 5.0 15.0 0.00 0.00 0.00 65 997.6
20260509180049 57 328 6.0 15.0 0.00 0.00 0.00 65 997.7
20260509175046 57 299 6.0 12.0 0.00 0.00 0.00 65 997.8
20260509174045 57 302 5.0 10.0 0.00 0.00 0.00 64 997.7
20260509173544 57 306 5.0 10.0 0.00 0.00 0.00 64 997.8
20260509173044 57 279 5.0 10.0 0.00 0.00 0.00 64 997.8
20260509172544 57 323 5.0 9.0 0.00 0.00 0.00 64 997.7
20260509172046 57 303 5.0 9.0 0.00 0.00 0.00 64 997.8
20260509171543 58 292 6.0 11.0 0.00 0.00 0.00 63 997.7
20260509171044 58 292 6.0 12.0 0.00 0.00 0.00 63 997.7
20260509170543 57 279 6.0 12.0 0.00 0.00 0.00 63 997.8
20260509170042 57 286 6.0 14.0 0.00 0.00 0.00 63 997.8
20260509165541 57 294 7.0 18.0 0.00 0.00 0.00 63 997.7
20260509165041 57 319 7.0 18.0 0.00 0.00 0.00 63 997.7
20260509164038 57 314 6.0 12.0 0.00 0.00 0.00 64 997.7
20260509163538 57 273 7.0 13.0 0.00 0.00 0.00 63 997.6
20260509162537 57 279 7.0 13.0 0.00 0.00 0.00 64 997.7
20260509162036 57 311 7.0 13.0 0.00 0.00 0.00 63 997.8
20260509161536 57 263 7.0 13.0 0.00 0.00 0.00 63 997.8
20260509161035 57 305 7.0 13.0 0.00 0.00 0.00 62 998.0
20260509160537 57 260 8.0 14.0 0.00 0.00 0.00 62 998.0
20260509160035 57 319 8.0 14.0 0.00 0.00 0.00 62 997.8
20260509155537 57 305 8.0 19.0 0.00 0.00 0.00 62 997.9
20260509155036 57 296 9.0 19.0 0.00 0.00 0.00 62 997.9
20260509154538 57 281 10.0 19.0 0.00 0.00 0.00 61 998.0
20260509153535 57 325 9.0 17.0 0.00 0.00 0.00 60 998.2
20260509153036 58 263 8.0 17.0 0.00 0.00 0.00 60 998.3
20260509152540 58 296 9.0 15.0 0.00 0.00 0.00 59 998.3
20260509152043 58 304 10.0 19.0 0.00 0.00 0.00 58 998.3
20260509150034 58 275 9.0 18.0 0.00 0.00 0.00 59 998.5
20260509145535 58 255 8.0 15.0 0.00 0.00 0.00 60 998.5
20260509145033 58 290 7.0 14.0 0.00 0.00 0.00 61 998.7
20260509144536 58 288 7.0 13.0 0.00 0.00 0.00 61 998.9
20260509144033 57 329 7.0 12.0 0.00 0.00 0.00 62 999.0
20260509143533 57 243 5.0 11.0 0.00 0.01 0.00 62 999.0
20260509143033 57 260 5.0 11.0 0.00 0.01 0.00 62 999.0
20260509142536 58 271 6.0 12.0 0.00 0.02 0.00 62 999.1
20260509142034 58 270 6.0 12.0 0.00 0.02 0.00 62 999.3
20260509141537 58 292 6.0 11.0 0.00 0.02 0.00 62 999.4
20260509141035 57 269 5.0 12.0 0.00 0.02 0.00 63 999.5
20260509140535 57 244 4.0 12.0 0.00 0.02 0.00 65 999.5
20260509140031 57 255 5.0 13.0 0.00 0.02 0.00 65 999.6
20260509135532 57 293 6.0 13.0 0.00 0.02 0.00 65 999.7
20260509135031 57 296 5.0 12.0 0.00 0.02 0.00 66 999.6
20260509134531 56 292 5.0 11.0 0.00 0.02 0.00 67 999.7
20260509134033 56 247 5.0 11.0 0.00 0.02 0.00 68 999.7
20260509133531 56 258 4.0 10.0 0.00 0.02 0.00 70 999.7
20260509133031 55 265 3.0 10.0 0.00 0.02 0.00 71 999.7
20260509132033 55 300 3.0 8.0 0.00 0.02 0.00 75 999.8
20260509131532 55 286 3.0 7.0 0.00 0.02 0.00 75 999.7
20260509131034 54 263 3.0 6.0 0.00 0.02 0.00 75 999.7
20260509130531 54 269 2.0 6.0 0.00 0.02 0.00 75 999.7
20260509130035 54 275 2.0 6.0 0.00 0.02 0.00 76 999.7
20260509125531 54 279 2.0 4.0 0.00 0.03 0.00 75 999.6
20260509125030 54 269 1.0 3.0 0.00 0.03 0.00 74 999.8
20260509124531 54 269 1.0 2.0 0.00 0.03 0.00 74 999.9
20260509124034 55 269 0.0 2.0 0.00 0.03 0.00 74 999.8
20260509123033 55 269 1.0 3.0 0.00 0.03 0.00 73 999.6
20260509122533 56 268 1.0 4.0 0.00 0.03 0.00 73 999.6
20260509122031 56 269 1.0 4.0 0.00 0.03 0.00 72 999.6
20260509121532 56 267 2.0 6.0 0.00 0.03 0.00 72 999.6
20260509121031 57 274 3.0 6.0 0.00 0.03 0.00 72 999.7
20260509120532 57 300 3.0 5.0 0.00 0.03 0.00 71 999.6
20260509120032 57 281 2.0 5.0 0.00 0.03 0.00 70 999.7
20260509115524 58 279 3.0 4.0 0.00 0.03 0.03 69 999.8
20260509115022 58 279 3.0 6.0 0.00 0.03 0.03 69 999.9
20260509114518 58 267 3.0 7.0 0.00 0.03 0.03 68 999.9
20260509114016 59 265 4.0 7.0 0.00 0.03 0.03 67 1000.0
20260509113017 59 278 4.0 8.0 0.00 0.03 0.03 66 1000.2
20260509112517 58 296 4.0 8.0 0.00 0.03 0.03 67 1000.3
20260509112017 58 303 4.0 7.0 0.00 0.03 0.03 67 1000.3
20260509111517 58 296 3.0 6.0 0.00 0.03 0.03 68 1000.6
20260509110515 58 311 3.0 5.0 0.00 0.03 0.03 68 1000.8
20260509110015 58 281 2.0 4.0 0.00 0.03 0.03 68 1000.6
20260509105522 59 294 3.0 6.0 0.00 0.03 0.03 67 1000.7
20260509105020 59 278 3.0 9.0 0.00 0.03 0.03 66 1000.6
20260509104519 59 286 4.0 9.0 0.00 0.03 0.03 66 1000.5
20260509103519 59 313 4.0 8.0 0.00 0.03 0.03 67 1000.6
20260509103021 59 287 4.0 8.0 0.00 0.03 0.03 67 1000.7
20260509102519 59 286 4.0 9.0 0.00 0.03 0.03 66 1000.9
20260509102017 59 283 4.0 9.0 0.00 0.03 0.03 66 1001.0
20260509101516 59 307 4.0 9.0 0.00 0.03 0.03 66 1000.9
20260509101014 59 309 3.0 8.0 0.00 0.03 0.03 67 1000.9
20260509100513 59 317 3.0 7.0 0.00 0.03 0.03 67 1000.9
20260509100013 60 290 4.0 9.0 0.00 0.03 0.03 67 1000.8
20260509095513 60 281 4.0 9.0 0.00 0.03 0.03 66 1000.8
20260509095013 59 286 3.0 7.0 0.00 0.03 0.03 68 1000.8
20260509094008 59 311 4.0 8.0 0.00 0.03 0.03 69 1000.7
20260509093508 59 330 2.0 5.0 0.00 0.03 0.03 69 1000.9
20260509093006 59 333 2.0 4.0 0.00 0.03 0.03 68 1000.9
20260509092512 59 329 2.0 4.0 0.00 0.03 0.03 68 1000.9
20260509092007 59 305 3.0 4.0 0.00 0.03 0.03 68 1000.8
20260509091506 60 315 3.0 6.0 0.00 0.03 0.03 67 1000.8
20260509091006 60 314 3.0 7.0 0.00 0.03 0.03 67 1001.0
20260509090006 60 309 1.0 3.0 0.00 0.03 0.03 67 1001.0
20260509085503 60 309 2.0 4.0 0.00 0.03 0.03 67 1001.0
20260509085007 60 309 3.0 5.0 0.00 0.03 0.03 67 1000.9
20260509084504 60 319 3.0 5.0 0.00 0.03 0.03 68 1000.8
20260509084004 59 278 3.0 5.0 0.00 0.03 0.03 69 1000.7
20260509083505 59 294 2.0 5.0 0.00 0.03 0.03 69 1000.7
20260509082957 59 311 2.0 6.0 0.00 0.03 0.03 69 1000.7
20260509082457 59 309 2.0 6.0 0.00 0.03 0.03 69 1000.7
20260509081957 60 275 2.0 4.0 0.00 0.03 0.03 68 1000.7
20260509081457 60 315 2.0 4.0 0.00 0.03 0.03 67 1000.6
20260509080958 60 314 2.0 4.0 0.00 0.03 0.03 67 1000.6
20260509080457 60 315 2.0 4.0 0.00 0.03 0.03 67 1000.4
20260509075954 60 313 2.0 4.0 0.00 0.03 0.03 66 1000.4
20260509075454 60 313 2.0 4.0 0.00 0.03 0.03 66 1000.3
20260509074955 61 313 2.0 4.0 0.00 0.03 0.03 66 1000.4
20260509074452 61 326 2.0 4.0 0.00 0.03 0.03 66 1000.2
20260509073952 61 307 3.0 6.0 0.00 0.03 0.03 65 1000.3
20260509073452 61 327 3.0 6.0 0.00 0.03 0.03 66 1000.2
20260509071440 61 296 2.0 3.0 0.00 0.03 0.03 66 1000.0
20260509070946 61 296 2.0 4.0 0.00 0.03 0.03 65 999.9
20260509070448 61 296 2.0 4.0 0.00 0.03 0.03 65 999.9
20260509065943 62 300 3.0 6.0 0.00 0.03 0.03 65 999.8
20260509065444 62 281 3.0 6.0 0.00 0.03 0.03 65 999.9
20260509064944 62 302 4.0 8.0 0.00 0.03 0.03 65 1000.0
20260509064445 62 306 4.0 8.0 0.00 0.03 0.03 64 1000.1
20260509063440 62 325 3.0 7.0 0.00 0.03 0.03 65 1000.2
20260509062937 62 312 3.0 6.0 0.00 0.03 0.03 65 1000.1
20260509062438 62 311 3.0 6.0 0.00 0.03 0.03 64 1000.1
20260509061432 63 331 3.0 8.0 0.00 0.03 0.03 63 1000.1
20260509060932 63 355 2.0 5.0 0.00 0.03 0.03 63 1000.1
20260509060431 63 322 3.0 5.0 0.00 0.03 0.03 63 1000.1
20260509055934 64 327 3.0 8.0 0.00 0.03 0.03 63 1000.0
20260509055432 63 305 3.0 8.0 0.00 0.03 0.03 62 999.9
20260509054931 64 318 4.0 8.0 0.00 0.03 0.03 62 999.6
20260509054432 64 323 3.0 6.0 0.00 0.03 0.03 62 999.6
20260509053931 64 323 3.0 5.0 0.00 0.03 0.03 61 999.6
20260509053435 64 305 2.0 4.0 0.00 0.03 0.03 60 999.5
20260509052934 65 271 3.0 7.0 0.00 0.03 0.03 60 999.4
20260509052435 65 319 4.0 8.0 0.00 0.03 0.03 59 999.5
20260509051934 65 291 4.0 8.0 0.00 0.03 0.03 59 999.6
20260509051433 65 290 5.0 8.0 0.00 0.03 0.03 59 999.5
20260509050933 66 313 5.0 10.0 0.00 0.03 0.03 59 999.3
20260509050444 66 327 5.0 10.0 0.00 0.03 0.03 58 999.4
20260509045433 67 328 5.0 9.0 0.00 0.03 0.03 57 999.4
20260509044432 67 302 7.0 13.0 0.00 0.03 0.03 56 999.4
20260509043931 67 343 7.0 15.0 0.00 0.03 0.03 56 999.4
20260509043433 67 308 8.0 16.0 0.00 0.03 0.03 56 999.3
20260509042931 67 288 8.0 16.0 0.00 0.03 0.03 57 999.2
20260509042431 67 343 7.0 15.0 0.00 0.03 0.03 57 999.1
20260509041934 67 316 7.0 15.0 0.00 0.03 0.03 58 999.1
20260509040931 67 294 8.0 14.0 0.00 0.03 0.03 57 999.1
20260509040434 67 311 7.0 14.0 0.00 0.03 0.03 56 999.1
20260509035435 67 320 9.0 15.0 0.00 0.03 0.03 55 998.9
20260509034939 67 313 10.0 19.0 0.00 0.03 0.03 55 999.0
20260509034438 67 298 10.0 19.0 0.00 0.03 0.03 54 998.9
20260509033932 67 319 9.0 16.0 0.00 0.03 0.03 53 998.8
20260509032933 68 313 7.0 14.0 0.00 0.03 0.03 53 999.0
20260509032431 68 325 8.0 14.0 0.00 0.03 0.03 52 998.9
20260509030933 68 317 8.0 14.0 0.00 0.03 0.03 52 998.9
20260509030432 69 321 9.0 16.0 0.00 0.03 0.03 51 998.9
20260509025932 69 309 10.0 19.0 0.00 0.03 0.03 51 998.9
20260509025434 69 309 9.0 19.0 0.00 0.03 0.03 51 998.8
20260509024935 69 308 9.0 19.0 0.00 0.03 0.03 50 998.8
20260509024432 70 323 9.0 17.0 0.00 0.03 0.03 49 998.8
20260509023936 70 0 9.0 17.0 0.00 0.03 0.03 49 998.8
20260509023434 71 282 10.0 21.0 0.00 0.03 0.03 48 998.8
20260509022932 70 325 10.0 21.0 0.00 0.03 0.03 49 998.7
20260509021431 70 329 9.0 17.0 0.00 0.03 0.03 50 998.8
20260509020933 69 313 9.0 17.0 0.00 0.03 0.03 50 998.9
20260509020432 70 300 9.0 17.0 0.00 0.03 0.03 50 999.0
20260509015932 69 325 9.0 16.0 0.00 0.03 0.03 51 999.0
20260509015431 69 311 9.0 18.0 0.00 0.03 0.03 51 999.1
20260509014933 70 333 10.0 18.0 0.00 0.03 0.03 51 999.0
20260509014430 70 303 11.0 19.0 0.00 0.03 0.03 50 999.1
20260509013928 71 294 11.0 19.0 0.00 0.03 0.03 48 999.0
20260509012927 72 313 10.0 20.0 0.00 0.03 0.03 48 998.9
20260509011926 71 313 9.0 18.0 0.00 0.03 0.03 51 999.1
20260509011428 71 304 9.0 19.0 0.00 0.03 0.03 52 999.3
20260509010927 71 308 9.0 19.0 0.00 0.03 0.03 53 999.3
20260509010428 71 345 9.0 16.0 0.00 0.03 0.03 54 999.3
20260509005422 71 325 9.0 16.0 0.00 0.03 0.03 53 999.4
20260509004426 71 322 11.0 18.0 0.00 0.03 0.03 53 999.7
20260509003927 71 301 10.0 17.0 0.00 0.03 0.03 53 999.7
20260509003422 71 0 9.0 18.0 0.00 0.03 0.03 53 1000.1
20260509002921 71 322 10.0 18.0 0.00 0.03 0.03 53 1000.2
20260509002422 70 317 10.0 19.0 0.00 0.03 0.03 54 1000.1
20260509001921 70 350 11.0 20.0 0.00 0.03 0.03 54 1000.1
20260509001423 70 308 11.0 20.0 0.00 0.03 0.03 54 1000.0
20260508235921 71 326 10.0 18.0 0.00 0.03 0.03 55 1000.4
20260508235421 70 5 11.0 18.0 0.00 0.03 0.03 55 1000.4
20260508234916 70 332 11.0 18.0 0.00 0.03 0.03 55 1000.6
20260508234416 70 304 10.0 20.0 0.00 0.03 0.03 54 1000.6
20260508233917 70 329 10.0 20.0 0.00 0.03 0.03 54 1000.8
20260508232417 70 294 8.0 18.0 0.00 0.03 0.03 55 1001.2
20260508231919 70 320 8.0 14.0 0.00 0.03 0.03 55 1001.4
20260508230917 70 336 8.0 13.0 0.00 0.03 0.03 56 1001.4
20260508230417 69 340 8.0 13.0 0.00 0.03 0.03 56 1001.4
20260508225917 69 5 7.0 18.0 0.00 0.03 0.03 58 1001.3
20260508224919 69 325 9.0 17.0 0.00 0.03 0.03 57 1001.6
20260508224418 69 309 10.0 17.0 0.00 0.03 0.03 57 1001.7
20260508223919 68 342 9.0 17.0 0.00 0.03 0.03 58 1001.7
20260508223428 68 336 8.0 16.0 0.00 0.03 0.03 58 1001.7